Location: Freistadt
(48.5112°N, 14.5013°E)
Time: 08:22:58
(UTC+01:00)

N. Korean satellite - Pass Details

Date: 29 November 2022
Orbit: 407 x 442 km, 97.3° (Epoch: 04 February)

Event Time Altitude Azimuth Distance (km) Brightness Sun altitude
Rises 06:09:49 0° 3° (N) 2,530 10.1 -12.8°
Reaches altitude 10° 06:12:03 10° 352° (N) 1,647 9.0 -12.4°
Maximum altitude 06:15:08 29° 291° (WNW) 903 7.3 -12.0°
Drops below altitude 10° 06:18:11 10° 231° (SW) 1,625 8.9 -11.5°
Sets 06:20:23 0° 219° (SW) 2,489 10.0 -11.1°
